Time,TemperatureF,DewpointF,PressureIn,WindDirection,WindDirectionDegrees,WindSpeedMPH,WindSpeedGustMPH,Humidity,HourlyPrecipIn,Conditions,Clouds,dailyrainin,SoftwareType,DateUTC
2013-05-12 12:23:00,54.0,54.0,29.58,WSW,238,2.0,12.0,99,0.00,,,0.16,,2013-05-12 16:23:00,
2013-05-12 12:33:00,54.0,54.0,29.57,WNW,283,2.0,9.0,99,0.01,,,0.17,,2013-05-12 16:33:00,
2013-05-12 12:42:00,54.0,54.0,29.57,WNW,283,2.0,9.0,99,0.01,,,0.17,,2013-05-12 16:42:00,
2013-05-12 12:52:00,54.0,54.0,29.56,SW,218,2.0,7.0,99,0.01,,,0.17,,2013-05-12 16:52:00,
2013-05-12 13:02:00,54.0,54.0,29.55,WSW,257,2.0,10.0,99,0.01,,,0.17,,2013-05-12 17:02:00,
2013-05-12 13:12:00,54.0,54.0,29.55,WSW,257,2.0,10.0,99,0.01,,,0.17,,2013-05-12 17:12:00,
2013-05-12 13:22:00,54.0,54.0,29.57,South,176,4.0,9.0,99,0.02,,,0.18,,2013-05-12 17:22:00,
2013-05-12 13:32:00,54.0,54.0,29.56,WSW,244,2.0,9.0,99,0.01,,,0.18,,2013-05-12 17:32:00,
2013-05-12 13:42:00,54.0,54.0,29.56,WSW,244,2.0,9.0,99,0.01,,,0.18,,2013-05-12 17:42:00,
2013-05-12 13:52:00,54.0,54.0,29.56,SSW,207,4.0,9.0,99,0.01,,,0.18,,2013-05-12 17:52:00,
2013-05-12 14:01:00,53.0,53.0,29.55,South,175,3.0,6.0,99,0.04,,,0.21,,2013-05-12 18:01:00,
2013-05-12 14:12:00,53.0,53.0,29.55,South,175,3.0,6.0,99,0.04,,,0.21,,2013-05-12 18:12:00,
2013-05-12 14:22:00,53.0,53.0,29.57,SSW,200,2.0,9.0,99,0.06,,,0.24,,2013-05-12 18:22:00,
2013-05-12 14:32:00,53.0,53.0,29.55,ESE,115,2.0,10.0,99,0.14,,,0.32,,2013-05-12 18:32:00,
2013-05-12 14:42:00,53.0,53.0,29.55,ESE,115,2.0,10.0,99,0.14,,,0.32,,2013-05-12 18:42:00,
2013-05-12 14:51:00,54.0,54.0,29.55,WSW,239,3.0,10.0,99,0.14,,,0.32,,2013-05-12 18:51:00,
2013-05-12 15:01:00,54.0,54.0,29.54,WSW,254,1.0,6.0,99,0.11,,,0.32,,2013-05-12 19:01:00,
2013-05-12 15:11:00,54.0,54.0,29.54,WSW,254,1.0,6.0,99,0.11,,,0.32,,2013-05-12 19:11:00,
2013-05-12 15:22:00,55.0,55.0,29.54,ESE,117,2.0,7.0,99,0.08,,,0.32,,2013-05-12 19:22:00,
2013-05-12 15:32:00,53.0,52.0,29.54,SE,144,2.0,7.0,98,0.00,,,0.32,,2013-05-12 19:32:00,
2013-05-12 15:42:00,53.0,52.0,29.54,SE,144,2.0,7.0,98,0.00,,,0.32,,2013-05-12 19:42:00,
2013-05-12 15:52:00,53.0,53.0,29.54,SW,221,3.0,8.0,99,0.00,,,0.32,,2013-05-12 19:52:00,
2013-05-12 16:02:00,54.0,54.0,29.53,SE,140,1.0,7.0,99,0.00,,,0.32,,2013-05-12 20:02:00,
2013-05-12 16:11:00,54.0,54.0,29.53,SE,140,1.0,7.0,99,0.00,,,0.32,,2013-05-12 20:11:00,
2013-05-12 16:22:00,54.0,53.0,29.53,SE,131,2.0,10.0,98,0.00,,,0.32,,2013-05-12 20:22:00,
2013-05-12 16:32:00,52.0,52.0,29.53,WSW,254,4.0,13.0,99,0.00,,,0.32,,2013-05-12 20:32:00,
2013-05-12 16:42:00,52.0,52.0,29.53,WSW,254,4.0,13.0,99,0.00,,,0.32,,2013-05-12 20:42:00,
2013-05-12 16:52:00,52.0,52.0,29.53,SW,216,3.0,14.0,99,0.00,,,0.32,,2013-05-12 20:52:00,
2013-05-12 17:01:00,52.0,52.0,29.53,WSW,238,5.0,11.0,99,0.00,,,0.32,,2013-05-12 21:01:00,
2013-05-12 17:11:00,52.0,52.0,29.53,WSW,238,5.0,11.0,99,0.00,,,0.32,,2013-05-12 21:11:00,
2013-05-12 17:21:00,52.0,52.0,29.53,WSW,247,6.0,12.0,99,0.00,,,0.32,,2013-05-12 21:21:00,
2013-05-12 17:33:00,51.0,51.0,29.54,SW,223,6.0,13.0,99,0.00,,,0.30,,2013-05-12 21:33:00,
2013-05-12 17:42:00,51.0,51.0,29.54,SW,223,6.0,13.0,99,0.00,,,0.30,,2013-05-12 21:42:00,
2013-05-12 17:53:00,50.0,50.0,29.53,SW,229,6.0,14.0,99,0.00,,,0.30,,2013-05-12 21:53:00,
2013-05-12 18:02:00,51.0,51.0,29.54,WSW,238,8.0,12.0,99,0.00,,,0.30,,2013-05-12 22:02:00,
2013-05-12 18:12:00,51.0,51.0,29.54,WSW,238,8.0,12.0,99,0.00,,,0.30,,2013-05-12 22:12:00,
2013-05-12 18:23:00,51.0,51.0,29.55,West,270,5.0,10.0,99,0.00,,,0.30,,2013-05-12 22:23:00,
2013-05-12 18:33:00,49.0,49.0,29.55,West,260,4.0,12.0,99,0.00,,,0.28,,2013-05-12 22:33:00,
2013-05-12 18:42:00,49.0,49.0,29.55,West,260,4.0,12.0,99,0.00,,,0.28,,2013-05-12 22:42:00,
2013-05-12 18:52:00,49.0,49.0,29.55,SW,227,3.0,9.0,99,0.00,,,0.28,,2013-05-12 22:52:00,
2013-05-12 19:02:00,50.0,50.0,29.56,SW,236,6.0,10.0,99,0.00,,,0.28,,2013-05-12 23:02:00,
2013-05-12 19:12:00,50.0,50.0,29.56,SW,236,6.0,10.0,99,0.00,,,0.28,,2013-05-12 23:12:00,
2013-05-12 19:22:00,51.0,51.0,29.56,SW,228,5.0,13.0,99,0.00,,,0.28,,2013-05-12 23:22:00,
2013-05-12 19:32:00,51.0,51.0,29.56,SW,215,7.0,14.0,99,0.00,,,0.27,,2013-05-12 23:32:00,
2013-05-12 19:42:00,51.0,51.0,29.56,SW,215,7.0,14.0,99,0.00,,,0.27,,2013-05-12 23:42:00,
2013-05-12 19:52:00,51.0,51.0,29.57,WSW,239,6.0,10.0,99,0.00,,,0.27,,2013-05-12 23:52:00,
2013-05-12 20:01:00,51.0,51.0,29.57,SW,217,6.0,8.0,99,0.00,,,0.27,,2013-05-13 00:01:00,
2013-05-12 20:11:00,51.0,51.0,29.57,SW,217,6.0,8.0,99,0.00,,,0.27,,2013-05-13 00:11:00,
2013-05-12 20:22:00,51.0,51.0,29.57,SW,230,6.0,9.0,99,0.00,,,0.27,,2013-05-13 00:22:00,
2013-05-12 20:32:00,51.0,51.0,29.58,SW,236,4.0,8.0,99,0.00,,,0.26,,2013-05-13 00:32:00,
2013-05-12 20:42:00,51.0,51.0,29.58,SW,236,4.0,8.0,99,0.00,,,0.26,,2013-05-13 00:42:00,
2013-05-12 20:51:00,50.0,50.0,29.59,SW,233,4.0,6.0,99,0.00,,,0.26,,2013-05-13 00:51:00,
2013-05-12 21:01:00,50.0,50.0,29.59,SW,233,1.0,3.0,99,0.00,,,0.26,,2013-05-13 01:01:00,
2013-05-12 21:11:00,50.0,50.0,29.59,SW,233,1.0,3.0,99,0.00,,,0.26,,2013-05-13 01:11:00,
2013-05-12 21:22:00,50.0,50.0,29.61,SW,235,3.0,7.0,99,0.00,,,0.26,,2013-05-13 01:22:00,
2013-05-12 21:32:00,50.0,50.0,29.61,SW,233,5.0,11.0,99,0.00,,,0.26,,2013-05-13 01:32:00,
2013-05-12 21:42:00,50.0,50.0,29.61,SW,233,5.0,11.0,99,0.00,,,0.26,,2013-05-13 01:42:00,
2013-05-12 21:52:00,50.0,50.0,29.60,SW,227,5.0,7.0,99,0.00,,,0.26,,2013-05-13 01:52:00,
2013-05-12 22:02:00,50.0,50.0,29.60,SW,229,3.0,7.0,99,0.00,,,0.26,,2013-05-13 02:02:00,
2013-05-12 22:11:00,50.0,50.0,29.60,SW,229,3.0,7.0,99,0.00,,,0.26,,2013-05-13 02:11:00,
2013-05-12 22:21:00,50.0,50.0,29.60,WSW,245,2.0,6.0,99,0.00,,,0.26,,2013-05-13 02:21:00,
2013-05-12 22:32:00,50.0,50.0,29.60,WSW,245,0.0,4.0,99,0.00,,,0.24,,2013-05-13 02:32:00,
2013-05-12 22:42:00,50.0,50.0,29.60,WSW,245,0.0,4.0,99,0.00,,,0.24,,2013-05-13 02:42:00,
2013-05-12 22:52:00,50.0,50.0,29.61,WSW,244,2.0,7.0,99,0.00,,,0.24,,2013-05-13 02:52:00,
2013-05-12 23:02:00,50.0,50.0,29.63,West,259,5.0,10.0,99,0.00,,,0.24,,2013-05-13 03:02:00,
2013-05-12 23:11:00,50.0,50.0,29.63,West,259,5.0,10.0,99,0.00,,,0.24,,2013-05-13 03:11:00,
2013-05-12 23:21:00,50.0,49.0,29.65,NW,320,4.0,12.0,98,0.00,,,0.24,,2013-05-13 03:21:00,
2013-05-12 23:33:00,49.0,48.0,29.66,NNE,26,8.0,14.0,98,0.00,,,0.24,,2013-05-13 03:33:00,
2013-05-12 23:42:00,49.0,48.0,29.66,NNE,26,8.0,14.0,98,0.00,,,0.24,,2013-05-13 03:42:00,
2013-05-12 23:53:00,49.0,48.0,29.67,North,354,6.0,13.0,97,0.00,,,0.24,,2013-05-13 03:53:00,